Weather History for Delta, CO

Change the Weather History Date:

Thursday, August 9, 2012

  Actual Average (KMTJ) Record (KMTJ)
Temperature  
Mean Temperature 84 °F 72 °F  
Max Temperature 101 °F 87 °F 96 °F (2000)
Min Temperature 67 °F 57 °F 50 °F (2004)
Degree Days  
Heating Degree Days 0 0  
Month to date heating degree days 0  
Since 1 June heating degree days 39  
Since 1 July heating degree days 0  
Cooling Degree Days 19 7  
Month to date cooling degree days 69  
Year to date cooling degree days 491  
Since 1 June cooling degree days 474  
Growing Degree Days 34 (Base 50)    
Moisture  
Dew Point 41 °F    
Average Humidity 27    
Maximum Humidity 49    
Minimum Humidity 10    
Precipitation  
Precipitation 0.00 in 0.04 in 0.21 in (1997)
Month to date precipitation 0.36  
Year to date precipitation 6.43  
Sea Level Pressure  
Sea Level Pressure 30.24 in    
Wind  
Wind Speed 7 mph ()    
Max Wind Speed 18 mph    
Max Gust Speed 28 mph    
Visibility 9.7 miles    
Events      
T = Trace of Precipitation, MM = Missing Value Source: Averaged Metar Reports

Daily Weather History Graph

Daily Weather History Graph

Search for Another Location

Airport:

Trip Planner

Search our weather history database for the weather conditions in past years. The results will help you decide how hot, cold, wet, or windy it might be!

Date:

Astronomy

Aug. 09, 2012 Rise Set
Actual Time 6:21 AM MDT 8:13 PM MDT
Civil Twilight 5:52 AM MDT 8:42 PM MDT
Nautical Twilight 5:17 AM MDT 9:17 PM MDT
Astronomical Twilight 4:39 AM MDT 9:54 PM MDT
Moon No Moon Rise 1:59 PM MDT (8/9)
Length of Visible Light 14h 50m
Length of Day
13h 52m
Waning Gibbous, 50% of the Moon is Illuminated
Aug 9
Waning Gibbous
Aug 9
Last Quarter
Aug 17
New
Aug 24
First Quarter
Aug 31
Full

Hourly Weather History & Observations

Time (MDT) Temp. Dew Point Humidity Pressure Visibility Wind Dir Wind Speed Gust Speed Precip Events Conditions
12:15 AM 74.1 °F 38.5 °F 28% 30.21 in 10.0 mi NE 8.1 mph - N/A   Clear
12:35 AM 74.1 °F 38.5 °F 28% 30.21 in 10.0 mi NNE 5.8 mph - N/A   Clear
12:55 AM 72.0 °F 35.1 °F 26% 30.22 in 10.0 mi East 6.9 mph - N/A   Clear
1:15 AM 72.5 °F 34.7 °F 25% 30.22 in 10.0 mi ENE 10.4 mph - N/A   Clear
1:35 AM 73.6 °F 35.8 °F 25% 30.22 in 10.0 mi ENE 10.4 mph - N/A   Clear
1:55 AM 72.9 °F 35.4 °F 25% 30.22 in 10.0 mi NE 8.1 mph - N/A   Clear
2:15 AM 72.0 °F 37.2 °F 28% 30.22 in 10.0 mi NE 3.5 mph - N/A   Clear
2:35 AM 71.4 °F 35.4 °F 27% 30.22 in 7.0 mi East 5.8 mph - N/A   Clear
2:55 AM 70.2 °F 35.6 °F 28% 30.22 in 10.0 mi ENE 6.9 mph - N/A   Clear
3:15 AM 70.5 °F 36.7 °F 29% 30.23 in 10.0 mi ENE 5.8 mph - N/A   Clear
3:35 AM 70.0 °F 36.5 °F 29% 30.23 in 10.0 mi ENE 9.2 mph - N/A   Clear
3:55 AM 70.2 °F 36.5 °F 29% 30.23 in 10.0 mi ENE 9.2 mph - N/A   Clear
4:15 AM 70.0 °F 37.0 °F 30% 30.23 in 10.0 mi ENE 6.9 mph - N/A   Clear
4:35 AM 68.4 °F 36.7 °F 31% 30.24 in 10.0 mi Calm Calm - N/A   Clear
4:55 AM 69.1 °F 36.7 °F 30% 30.25 in 10.0 mi East 5.8 mph - N/A   Clear
5:15 AM 68.9 °F 36.7 °F 31% 30.25 in 10.0 mi NE 6.9 mph - N/A   Clear
5:35 AM 67.6 °F 36.3 °F 32% 30.25 in 10.0 mi NE 8.1 mph - N/A   Clear
5:55 AM 69.1 °F 36.5 °F 30% 30.25 in 10.0 mi ENE 9.2 mph - N/A   Clear
6:15 AM 69.3 °F 36.9 °F 30% 30.26 in 10.0 mi ENE 8.1 mph - N/A   Clear
6:35 AM 70.9 °F 36.5 °F 28% 30.26 in 10.0 mi ENE 6.9 mph - N/A   Clear
6:55 AM 70.7 °F 37.0 °F 29% 30.27 in 10.0 mi ENE 4.6 mph - N/A   Clear
7:15 AM 70.3 °F 37.6 °F 30% 30.27 in 10.0 mi ENE 5.8 mph - N/A   Clear
7:35 AM 71.1 °F 37.9 °F 30% 30.28 in 7.0 mi ENE 4.6 mph - N/A   Clear
7:55 AM 72.5 °F 37.6 °F 28% 30.28 in 10.0 mi East 4.6 mph - N/A   Clear
8:15 AM 73.2 °F 37.6 °F 27% 30.29 in 10.0 mi Calm Calm - N/A   Clear
8:35 AM 72.0 °F 42.4 °F 34% 30.29 in 10.0 mi Calm Calm - N/A   Clear
9:35 AM 79.7 °F 38.7 °F 23% 30.28 in 10.0 mi Calm Calm - N/A   Clear
12:15 PM 93.2 °F 39.6 °F 15% 30.23 in 10.0 mi South 4.6 mph - N/A   Clear
12:35 PM 94.8 °F 39.9 °F 15% 30.22 in 7.0 mi SSE 5.8 mph - N/A   Clear
12:55 PM 95.5 °F 40.1 °F 15% 30.21 in 7.0 mi ESE 5.8 mph - N/A   Clear
1:35 PM 97.2 °F 43.0 °F 15% 30.19 in 10.0 mi SW 11.5 mph - N/A   Clear
1:55 PM 94.5 °F 43.0 °F 17% 30.19 in 10.0 mi SW 8.1 mph - N/A   Clear
2:15 PM 98.8 °F 40.6 °F 13% 30.18 in 10.0 mi SSW 11.5 mph - N/A   Clear
2:35 PM 101.3 °F 34.0 °F 10% 30.18 in 10.0 mi West 11.5 mph 18.4 mph N/A   Clear
3:15 PM 99.0 °F 35.8 °F 11% 30.18 in 10.0 mi West 15.0 mph 19.6 mph N/A   Clear
3:35 PM 96.1 °F 35.1 °F 12% 30.19 in 7.0 mi SW 12.7 mph - N/A   Clear
3:55 PM 89.8 °F 45.5 °F 22% 30.21 in 10.0 mi South 17.3 mph 26.5 mph N/A   Clear
4:15 PM 88.0 °F 46.4 °F 24% 30.23 in 7.0 mi SSE 15.0 mph 23.0 mph N/A   Clear
4:35 PM 86.9 °F 48.4 °F 26% 30.23 in 10.0 mi SE 18.4 mph 26.5 mph N/A   Clear
4:55 PM 87.6 °F 45.7 °F 23% 30.25 in 10.0 mi SE 17.3 mph 27.6 mph N/A   Clear
5:15 PM 88.5 °F 46.2 °F 23% 30.26 in 10.0 mi ESE 18.4 mph 27.6 mph N/A   Clear
5:35 PM 88.7 °F 45.3 °F 22% 30.25 in 10.0 mi SSE 18.4 mph 24.2 mph N/A   Clear
5:55 PM 85.8 °F 46.6 °F 25% 30.26 in 10.0 mi SSE 18.4 mph 24.2 mph N/A   Clear
6:15 PM 82.0 °F 47.7 °F 30% 30.26 in 10.0 mi South 18.4 mph 24.2 mph N/A   Clear
6:35 PM 81.1 °F 47.7 °F 31% 30.25 in 10.0 mi South 11.5 mph 21.9 mph N/A   Clear
6:55 PM 80.6 °F 47.8 °F 32% 30.25 in 10.0 mi SSE 10.4 mph 17.3 mph N/A   Clear
7:15 PM 81.5 °F 46.9 °F 30% 30.23 in 10.0 mi SE 9.2 mph - N/A   Clear
7:35 PM 82.4 °F 46.9 °F 29% 30.24 in 10.0 mi East 5.8 mph - N/A   Clear
7:55 PM 82.4 °F 46.6 °F 28% 30.25 in 10.0 mi East 5.8 mph - N/A   Clear
8:15 PM 81.5 °F 46.0 °F 29% 30.25 in 10.0 mi East 8.1 mph - N/A   Clear
8:35 PM 81.5 °F 46.0 °F 29% 30.26 in 10.0 mi East 9.2 mph - N/A   Clear
8:55 PM 80.8 °F 46.4 °F 30% 30.27 in 10.0 mi NE 8.1 mph - N/A   Clear
9:15 PM 80.8 °F 46.4 °F 30% 30.27 in 10.0 mi ENE 5.8 mph - N/A   Clear
9:35 PM 78.6 °F 48.2 °F 34% 30.28 in 10.0 mi NNE 3.5 mph - N/A   Clear
9:55 PM 78.8 °F 45.9 °F 31% 30.28 in 10.0 mi Calm Calm - N/A   Clear
10:35 PM 77.4 °F 46.0 °F 33% 30.28 in 10.0 mi Calm Calm - N/A   Scattered Clouds
10:55 PM 76.1 °F 47.3 °F 36% 30.27 in 10.0 mi North 3.5 mph - N/A   Clear
11:15 PM 76.3 °F 46.4 °F 35% 30.28 in 10.0 mi Calm Calm - N/A   Clear
11:35 PM 74.1 °F 50.0 °F 43% 30.27 in 10.0 mi Calm Calm - N/A   Clear
11:55 PM 72.5 °F 52.2 °F 49% 30.27 in 7.0 mi NNW 3.5 mph - N/A   Clear